weather.gov     
National Weather Service

Terminal Aerodrome Forecast
NWS Homepage
This page is being discontinued on March 12, 2014.
The same data is available at this site. Please update your bookmarks.
Thank you, and we apologize for the inconvenience.
Please send an email to SR-SRH.Webmaster@noaa.gov with any concerns.


Current Version
Previous Version:    01  02  03  04  05  06  07  08  09  10  11  12  13  14  15  16  17  18  19  20  21  22  23  24  25  26  27  28  29  30  
   31  32  33  34  35  
[Printable]
506
FTAK31 PAJN 310500
TAFAKT
TAF
PAKT 310520Z 3106/0106 30004KT P6SM VCSH SCT015 BKN045
     FM310900 VRB03KT P6SM BKN010 OVC045
     FM311800 14006KT P6SM VCSH SCT015 BKN035
     FM010000 14010KT P6SM -SHRA BKN022 OVC035
      AMD LTD TO CLD VIS AND WIND 3106/3115=


U.S. Dept. of Commerce
NOAA National Weather Service
1325 East West Highway
Silver Spring, MD 20910
E-mail: w-nws.webmaster@noaa.gov
Page last modified: May 16, 2007
NATIONAL WEATHER SERVICE: for Safety, for Work, for Fun - FOR LIFE